COSMOS 1603 DEB

Satellite information

Favourite Embed

Satellite Type and Status

DEBRISIN ORBIT

Key statistics

Satellite COSMOS 1603 DEB at a glance.

Uptime

15009

Days in orbit

Revolutions

≈ 14.2

Per day

Orbit

LEO

Low Earth Orbit

Inclination

71.0

Latest

Satellite identification and parameters

Extended collection of information and parameters for COSMOS 1603 DEB.

Object identification

Identified? True

Debris? True

Object name: COSMOS 1603 DEB

International designator: 1984-106AE

Object number (NORAD): 43312

Object ID (CCSDS): 43312

Country: COMMONWEALTH OF INDEPENDENT STATES (CIS)

Current information (Y/N): Y

RCS size: SMALL

Orbital parameters

Period: 101.321 minutes

Inclination: 71.0232 deg

SMA: 7199.344 km

Apoapsis: 834.998 km

Periapsis: 807.42 km

RAAN: 151.8633 deg

Eccentricy: 0.0019153

Argument of periapsis: 228.1257 deg

Mean anomaly: 131.8236 deg

Mean motion: 14.21226811 rev/day

Mean motion (dot): 0.00001792 rev/day2

B* drag term: 0.00084319 1/REarth

Two-line elements (TLE)

Creation date: Oct. 27, 2025, 2:36 p.m.

Reference frame: TEME

Reference center: EARTH

Epoch: Oct. 27, 2025, 6:13 a.m. UTC

TLE line 0: 0 COSMOS 1603 DEB

TLE line 1: 1 43312U 84106AE 25300.25913337 .00001792 00000-0 84319-3 0 9992

TLE line 2: 2 43312 71.0232 151.8633 0019153 228.1257 131.8236 14.21226811501584

Live tracking on map

Real-time ground track for satellite COSMOS 1603 DEB.

In-orbit conjunctions

A list of the most updated potential collisions computed for object COSMOS 1603 DEB.

Target Orbit TCA Probability of collision Miss distance Type
NOAA 16 DEB SSO 2024-11-14 10:38:32 0.0007843578 205.0 (m) DEBRIS
FENGYUN 1C DEB SSO 2024-11-11 00:47:32 0.0002436076 392.0 (m) DEBRIS
FENGYUN 1C DEB SSO 2024-07-08 12:25:50 0.0002925236 64.0 (m) DEBRIS
SL-16 DEB LEO 2024-06-10 23:49:16 0.0001031868 349.0 (m) DEBRIS

Associated space launch

Second generation ELING satellite

COSMOS 1603 DEB was lifted into orbit during the mission ‘Proton | Tselina-2 1’, on board a Proton space rocket.

The launch took place on Sept. 28, 1984, 2 p.m. from 200/39 (200L).

For more information about the launch, click the button.

Launch to space Proton | Tselina-2 1
Proton | Tselina-2 1

Agency: N/A

Status: Launch Successful

Launch date: Sept. 28, 1984, 2 p.m. UTC

Rocket: Proton

Launch pad: 200/39 (200L)

Location: Baikonur Cosmodrome, Republic of Kazakhstan

...

Latest news about this satellite

There are no fresh news available about this satellite. Check back as we update our databases every day.


Newsletter sign-up

Weekly statistics, charts and insights to help you stay on top of the space industry.